www.pogodaiklimat.ru

Погода и климат >> Архив погоды >> Россия >> Забайкальский край >> Усть-Каренга


ПОГОДА в Усть-Каренге

  • Прогноз погоды в Усть-Каренге
  • Монитор погоды в Усть-Каренге
  • Климат города

АРХИВ ПОГОДЫ в Усть-Каренге

Время (UTC), дата Ветер
(напр.,м/с)
 
Видим.   Явления Облачность Т
(С)
Тd
(С)
f
(%)
Тe
(С)
Тes
(С)
Комфортность P
(гПа)
Po
(гПа)
Тmin
(С)
Tmax
(С)
R
(мм)
R24
(мм)
S
(см)
18 11.10 Ю 1 н/о 4/0
[Ci fib]
-2.7 -3.8 92 -5 -5 1018.1 934.2
21 11.10 штиль 0 н/о 3/0
[Ac lent Ci fib]
-3.9 -4.5 96 -5 -5 1018.1 933.9
00 12.10 штиль 0 50 км 7 баллов -3.9 -4.6 95 -5 -5 1019.1 934.7 -5.7
03 12.10 Ю 1 50 км 8/0
[Ac lent Ci sp]
+5.5 -1.9 59 +5 +8 1014.8 933.6
06 12.10 СЗ 3 50 км 10/4 1000 м
[Sc Ac lent Ci sp]
+10.2 -1.8 43 +9 +9 1012.7 932.9
09 12.10 СЗ 3 50 км 10/5 600 м
[Cb cap Ac lent Ci sp]
+7.3 -2.4 50 +5 +5 1015.2 934.4
12 12.10 С 1 н/о 7 баллов +5.1 -4.5 50 +4 +4 1017.7 936.0 +11.2
15 12.10 СЗ 2 н/о 6/3 1000 м
[Sc Ci fib]
+3.2 -4.4 57 +1 +1 1018.5 936.3
18 12.10 С 1 н/о слабый ливневой снег 10/10 600 м
[Cb cap]
+0.5 -0.4 94 -2 -2 1021.2 938.1
21 12.10 СЗ 1 н/о слабый ливневой снег 10/10 600 м
[Cb cap]
-0.0 -0.3 98 -2 -2 1023.1 939.6
00 13.10 штиль 0 200 м туман {ливн. осадки} [диам. отлож. мокр. снега 13 мм] 3/3 600 м
[Sc diur, vesp Ac trans]
+0.7 +0.4 98 -1 -0 1024.6 941.2 -1.3 5 5
03 13.10 штиль 0 50 км {туман} 6/3 600 м
[Sc diur, vesp Ac trans]
+3.1 -0.1 79 +2 +5 1024.5 941.8
06 13.10 З 1 50 км {туман} 6/5 600 м
[Sc diur, vesp Ac trans]
+7.2 -6.3 38 +7 +9 1022.3 940.9
09 13.10 З 2 50 км 3/3 1000 м
[Sc]
+6.0 -7.3 38 +4 +4 1022.5 940.7
12 13.10 В 2 н/о ясно -1.9 -6.8 69 -5 -5 1027.2 942.7 +9.5
15 13.10 штиль 0 н/о ясно -5.6 -7.2 88 -7 -7 1027.9 942.3
18 13.10 штиль 0 н/о ясно -8.3 -9.1 94 -9 -9 1029.5 942.9
21 13.10 ЮВ 1 н/о ясно -9.7 -10.6 93 -12 -12 1030.6 943.5
00 14.10 ЮВ 1 50 км ясно -8.3 -10.2 86 -11 -10 1032.2 945.3 -10.3
03 14.10 штиль 0 50 км 3/0
[Ci fib]
+2.3 -6.1 54 +2 +6 1028.1 944.8
06 14.10 штиль 0 50 км ясно +7.3 -9.2 30 +7 +11 1025.3 943.6
09 14.10 штиль 0 50 км ясно +6.5 -9.1 32 +7 +7 1025.2 943.3
12 14.10 штиль 0 н/о ясно -4.3 -7.4 79 -5 -5 1030.9 945.3 +8.5
15 14.10 ЮВ 1 н/о ясно -7.4 -8.9 89 -10 -10 1032.2 945.7
18 14.10 штиль 0 н/о ясно -9.5 -10.7 91 -10 -10 1033.6 946.3
21 14.10 ЮВ 1 н/о ясно -11.5 -12.6 92 -14 -14 1035.1 947.0
00 15.10 ЮВ 1 50 км ясно -10.4 -12.4 85 -13 -12 1037.3 949.3 -12.4
03 15.10 штиль 0 50 км ясно +0.8 -6.4 59 0 +5 1031.5 947.5
06 15.10 ЮЗ 1 50 км ясно +6.6 -9.7 30 +7 +10 1027.9 945.8
09 15.10 штиль 0 50 км 1/0
[Ci sp]
+5.7 -12.5 26 +6 +6 1027.6 945.3
12 15.10 В 1 н/о 1 балл -4.8 -9.2 71 -7 -7 1032.6 946.7 +8.8
15 15.10 В 1 н/о ясно -8.4 -11.1 81 -11 -11 1033.9 946.9
18 15.10 В 1 н/о ясно -11.4 -12.9 89 -14 -14 1035.1 947.1
21 15.10 ЮВ 1 н/о ясно -13.6 -15.0 89 -16 -16 1035.9 947.1
00 16.10 ЮВ 1 50 км ясно -12.5 -14.8 83 -15 -14 1036.7 948.0 -14.3
03 16.10 штиль 0 50 км ясно -0.8 -8.4 56 -1 +3 1030.7 946.3
06 16.10 Ю 1 50 км 3/0
[Ci sp]
+8.3 -8.8 29 +8 +12 1025.4 944.0
09 16.10 штиль 0 50 км 3/0
[Ci sp]
+6.3 -8.3 34 +6 +6 1024.9 943.0
12 16.10 ЮВ 1 н/о 1 балл -3.9 -7.8 74 -6 -6 1029.3 944.0 +9.6
15 16.10 ЮВ 1 н/о ясно -7.4 -9.3 86 -10 -10 1030.0 943.7
18 16.10 штиль 0 н/о ясно -9.5 -10.8 90 -10 -10 1030.5 943.4
21 16.10 ЮВ 1 н/о 3/0
[Ci fib]
-11.3 -12.4 92 -14 -14 1030.9 943.3
00 17.10 штиль 0 50 км 2 балла -10.0 -11.7 87 -10 -10 1031.4 944.0 -12.1
03 17.10 ЮВ 1 50 км 3/0
[Ci fib]
+2.2 -5.8 55 +1 +5 1025.4 942.3
06 17.10 В 1 50 км 1/0
[Ci fib]
+9.4 -6.6 32 +10 +13 1020.8 940.1
09 17.10 З 1 50 км 6/0
[Ci sp]
+6.0 -6.2 41 +6 +6 1020.8 939.1
12 17.10 ЮВ 1 н/о 7 баллов -2.7 -6.5 75 -5 -5 1024.5 940.0 +11.7
15 17.10 штиль 0 н/о 8/0
[Cs]
-3.0 -6.7 76 -4 -4 1023.5 939.0
18 17.10 штиль 0 н/о 3/0
[Ci fib]
-6.2 -7.3 92 -7 -7 1024.4 938.9
21 17.10 штиль 0 н/о 3/0
[Ci fib]
-6.8 -8.1 90 -8 -8 1024.5 938.8
00 18.10 штиль 0 50 км 7 баллов -5.9 -7.6 88 -7 -7 1025.6 940.0 -7.2
03 18.10 штиль 0 50 км 10/0
[As trans]
+2.7 -4.2 60 +2 +4 1020.9 938.4
06 18.10 СВ 1 50 км 10/0
[Cs]
+12.1 -4.8 30 +13 +15 1016.9 937.2
09 18.10 штиль 0 50 км 10/0
[Cs]
+6.8 -4.4 45 +7 +7 1018.9 937.6
12 18.10 В 1 н/о 10 баллов +0.7 -4.7 67 -1 -1 1023.4 940.0 +13.2
15 18.10 штиль 0 н/о 10/0
[Cs]
-4.0 -5.8 87 -5 -5 1024.1 939.3

 

Местоположение метеостанции Усть-Каренга (Забайкальский край, Россия): широта 54.43 долгота 116.50 высота над уровнем моря 688 м.

В архиве по умолчанию представлена погода в Усть-Каренге за последнюю неделю. Архивные данные за месяц целиком и за предыдущие месяцы, начиная с января 2011 года, Вы можете получить, выбрав интересующий диапазон дат из раскрывающегося списка и нажав кнопку "Ввод!".


*Определитесь, кто Вы:
робот инопланетянин человек

Внимание! Время в таблицах - всемирное. Для получения местного времени необходимо прибавить поправку, которая в Усть-Каренге равна 9 ч.

Смотрите также архив погоды в соседних городах и на ближайших метеорологических станциях:

Погода в Тунгокочене (Забайкальский край, Россия) (116 км)
Погода в Ксеньевской (Забайкальский край, Россия) (174 км)
Погода в Багдарине (Бурятия, Россия) (194 км)
Погода в Чернышевске (Забайкальский край, Россия) (214 км)
Погода в Усугли (Забайкальский край, Россия) (219 км)
Погода в Уаките (Бурятия, Россия) (219 км)
Погода в Тупике (Забайкальский край, Россия) (220 км)
Погода в Троицком Прииске (Бурятия, Россия) (220 км)
Погода в Могоче (Забайкальский край, Россия) (222 км)
Погода в Баунте (Бурятия, Россия) (237 км)

Пояснения к столбцам:

Ветер - указаны скорость ветра в м/с - средняя за 10 мин, порывы в срок и между сроками (в фигурных скобках) и направление, откуда дует ветер: С - северный, СВ - северо-восточный, В - восточный, ЮВ - юго-восточный, Ю - южный, ЮЗ - юго-западный, З - западный, СЗ - северо-западный.
Видимость - горизонтальная дальность видимости в метрах или километрах. При видимости от 1 до 10 км при отсутствии осадков обычно наблюдается дымка, при ухудшении видимости до 1 км и менее - туман. В сухую погоду видимость может ухудшаться дымом, пылью или мглою.
Явления - указаны атмосферные явления, наблюдавшиеся в срок или в последний час перед сроком; фигурными скобками обозначены явления, наблюдавшиеся между сроками (за 1-3 часа до срока); квадратными скобками обозначены град или гололедные отложения с указанием их диаметра в мм.
Облачность - указаны через наклонную черту общая и нижняя облачность в баллах и высота нижней границы облаков в метрах; квадратными скобками обозначены формы облаков: Ci - перистые, Cs - перисто-слоистые, Cc - перисто-кучевые, Ac - высококучевые, As - высокослоистые, Sc - слоисто-кучевые, Ns - слоисто-дождевые, Cu - кучевые, Cb - кучево-дождевые. Подробнее классификацию облаков см. в Атласе облаков (PDF).
T - Температура воздуха - температура, измеренная на высоте 2 м над землей.
Td - Температура точки росы - температура, при понижении до которой содержащийся в воздухе водяной пар достигнет насыщения.
f - Относительная влажность воздуха - влажноcть воздуха, измеренная на высоте 2 м над землей.
Te - Эффективная температура - температура, которую ощущает одетый по сезону человек в тени. Характеристика душности погоды. При расчете учитывается влияние влажности воздуха и скорости ветра на теплоощущения человека.
Tes - Эффективная температура на солнце - температура, которую ощущает человек, с поправкой на солнечный нагрев. Характеристика знойности погоды. Зависит от высоты солнца над горизонтом, облачности и скорости ветра. Ночью, в пасмурную погоду, а также при ветре 12 м/с и более поправка равна нулю.
P - Атмосферное давление - приведенное к уровню моря атмосферное давление.
Po - Атмосферное давление - измеренное на уровне метеостанции атмосферное давление.
Tmin - Минимальная температура - минимум температуры воздуха на высоте 2 м над землей.
Tmax - Максимальная температура - максимум температуры воздуха на высоте 2 м над землей.
R - Количество осадков - Количество выпавших осадков за период времени, мм. При наведении курсора мыши на число - период времени, за который выпало указанное количество осадков.
R24 - Количество осадков - Количество выпавших осадков за 24 часа, мм.
S - Снежный покров - Высота снежного покрова, см. При наведении курсора мыши на число - состояние снежного покрова и степень покрытия местности в баллах.